Location: Essehof
(52.3065°N, 10.6590°E)
Time: 23:21:09
(UTC+00:00)

Daily predictions for brighter satellites

Satellite Brightness Start Highest point End
(mag) Time Altitude Azimuth Time Altitude Azimuth Time Altitude Azimuth
USA 238 DEB 4.5 20:14:37 10° NW 20:21:44 55° SW 20:29:26 10° SSE
USA 238 4.5 20:14:42 10° NW 20:21:51 55° SW 20:29:33 10° SSE
ERS-1 Rocket 3.8 20:20:14 10° S 20:25:05 49° W 20:29:58 10° NNW
Cosmos 1437 Rocket 3.8 20:22:13 10° SSE 20:25:08 25° E 20:28:07 10° NE
Cosmos 921 Rocket 3.3 20:21:09 10° S 20:25:16 50° ESE 20:29:29 10° NNE
Cosmos 2219 4.5 20:22:15 10° SSE 20:26:33 22° E 20:30:51 10° NE
SL-14 R/B 3.3 20:29:27 10° S 20:33:21 71° E 20:37:16 10° NNE
Cosmos 2123 Rocket 4.4 20:28:25 10° SSE 20:34:25 49° E 20:40:23 10° NNE
Cosmos 1461 4.3 20:34:03 10° WSW 20:37:44 42° NW 20:41:33 10° NE
SL-8 R/B 4.0 20:34:53 10° W 20:39:30 49° S 20:44:06 10° ESE
In-Cosmos 22 4.4 20:36:00 10° SSW 20:41:44 80° WNW 20:47:24 10° NNE
Cosmos 2237 Rocket 3.2 20:36:43 10° NW 20:42:01 41° WSW 20:47:18 10° S
Cosmos 1459 Rocket 4.1 20:35:47 10° N 20:42:07 88° E 20:48:30 10° S
USA 290 4.3 20:41:50 10° SE 20:43:17 13° E 20:44:45 10° ENE
NOSS 3-1 (C) 4.5 20:39:07 10° NW 20:45:31 54° NNE 20:53:34 10° ESE
Cosmos 1802 Rocket 4.1 20:40:35 10° N 20:47:05 77° E 20:53:28 10° SSE
Meteor 1-15 Rocket 4.3 20:41:24 10° NNW 20:47:05 83° ENE 20:52:40 10° SSE
Cosmos 2061 Rocket 4.5 20:42:29 10° N 20:48:37 49° ENE 20:54:37 10° SSE
SL-4 R/B 3.9 20:48:03 10° SSE 20:49:18 11° SE 20:50:35 10° ESE
USA 305 2.9 20:48:32 10° SW 20:52:08 37° SSE 20:55:12 10° E
Cosmos 1953 3.1 20:49:24 10° N 20:52:52 35° ENE 20:56:11 11° SE
Cosmos 1633 Rocket 4.3 20:54:52 10° NNW 20:58:52 38° W 21:02:51 10° SSW
Meteor 1-22 Rocket 4.4 20:53:54 10° NNW 20:59:13 69° W 21:04:38 10° S
Lacrosse 4 Rocket 2.0 20:56:05 10° NW 21:00:09 47° WSW 21:04:06 11° SSE
NOSS 3-4 (A) 3.4 20:58:01 10° SW 21:03:27 79° NW 21:09:35 10° NE
NOSS 3-4 (C) 3.4 20:58:07 10° SW 21:03:32 80° NW 21:09:41 10° NE
Cosmos 2016 Rocket 4.1 20:59:53 10° N 21:06:15 86° E 21:12:37 10° S
Cosmos 1818 3.5 21:01:07 10° SW 21:06:33 79° SE 21:12:02 10° NE
Cosmos 1455 4.0 21:08:06 10° NW 21:09:53 16° W 21:11:39 10° SW
Meteor 2-21 4.5 21:05:53 10° S 21:12:00 72° E 21:18:07 10° NNE
Ariane Rocket 3.7 21:10:37 10° S 21:15:32 49° W 21:20:29 10° NNW
USA 59 Rocket 1.8 21:13:20 10° NNW 21:15:51 21° NNE 21:18:46 10° ENE
Cosmos 2297 Rocket 3.2 21:10:44 10° SW 21:16:14 50° NW 21:21:46 10° NNE
CZ-4C R/B 4.4 21:14:07 10° NE 21:16:40 21° E 21:18:25 14° SE
GP-B 3.1 21:15:42 10° N 21:20:05 69° E 21:23:59 13° S
SPOT 3 Rocket 4.5 21:15:28 10° S 21:20:19 42° W 21:25:15 10° NNW
Cosmos 1269 Rocket 4.3 21:20:45 10° S 21:25:50 52° ESE 21:30:59 10° NNE
Cosmos 2084 Rocket 4.3 21:22:16 10° WNW 21:26:05 35° SW 21:29:07 14° S
Meteor 1-12 Rocket 4.4 21:20:12 10° NNW 21:26:05 82° W 21:31:34 13° S
ATLAS CENTAUR R/B 3.1 21:25:30 10° WNW 21:28:15 19° WSW 21:30:57 10° SSW
Cosmos 540 Rocket 4.5 21:25:15 10° NNW 21:30:03 38° NE 21:34:48 10° ESE
Cosmos 1933 Rocket 4.1 21:26:19 10° NNW 21:30:38 55° W 21:34:40 11° S
SL-16 R/B 2.8 21:31:27 10° NW 21:36:54 50° WSW 21:41:38 14° S
Terra 4.3 21:37:40 10° WSW 21:39:52 13° W 21:42:04 10° WNW
ALOS 2 3.9 21:37:03 11° ESE 21:40:41 30° ENE 21:44:32 10° N
DELTA 2 DEB (DPAF) 3.7 21:37:13 10° NNE 21:41:09 74° ESE 21:44:30 14° S
Cosmos 2344 4.0 21:33:26 10° NW 21:41:15 85° NE 21:51:46 10° SE
Cosmos 1733 Rocket 3.4 21:37:28 10° N 21:41:49 55° ENE 21:45:01 17° SSE
Meteor 1-23 Rocket 4.4 21:36:30 10° SSW 21:42:04 74° WNW 21:47:43 10° N
Cosmos 2233 Rocket 4.2 21:37:37 10° NNW 21:43:56 73° W 21:49:37 13° S
Cosmos 2227 Rocket 2.8 21:39:08 10° SW 21:44:42 60° NW 21:50:20 10° NNE
Cosmos 1869 Rocket 3.9 21:40:37 10° NNW 21:44:57 60° W 21:48:34 14° S
RESURS DK-1 2.6 21:41:42 10° SW 21:45:41 67° NW 21:49:42 10° NNE
Meteor 1-16 Rocket 4.5 21:41:28 10° NNW 21:47:13 70° W 21:52:16 14° S
Meteor 1-21 4.4 21:42:31 10° SSW 21:48:13 82° WNW 21:54:02 10° NNE
Cosmos 2263 Rocket 2.2 21:43:29 10° SSW 21:49:10 87° ESE 21:54:55 10° NNE
CZ-2C R/B 4.2 21:48:30 10° NNE 21:52:52 45° E 21:56:00 18° SSE
Okean 2 3.3 21:50:02 17° S 21:52:53 68° E 21:56:47 10° NNE
Okean 3 3.4 21:50:58 17° S 21:54:02 69° E 21:58:07 10° NNE
Aureole 3 Rocket 3.2 21:52:07 10° N 21:55:04 39° ENE 21:57:13 18° SE
IRIDIUM 106 4.4 21:51:50 16° S 21:55:59 71° E 22:01:12 10° N
Cosmos 1943 3.2 21:52:53 10° NNW 21:58:38 84° WSW 22:03:04 17° SSE
ASTEX 1 3.5 21:53:46 10° N 21:58:43 63° E 22:02:22 18° S
Cosmos 1437 Rocket 4.3 21:57:01 10° SW 22:00:09 29° WNW 22:03:20 10° N
SeaSat 1 3.6 21:58:33 10° ESE 22:03:05 39° NE 22:07:36 10° NNW
Cosmos 2346 Rocket 4.5 21:59:10 14° S 22:04:38 82° E 22:10:52 10° NNE
NOSS 2-1 (D) 4.4 22:03:17 10° NW 22:06:22 37° NE 22:10:10 10° ESE
Geosat 4.3 22:02:25 10° NNE 22:07:26 71° NW 22:12:25 10° SW
Cosmos 1763 Rocket 3.5 22:03:25 10° NNW 22:08:37 83° ENE 22:12:24 18° SSE
Cosmos 2219 3.4 22:04:19 10° SW 22:10:04 79° WNW 22:15:52 10° NNE
MetOp-A 3.8 22:10:28 19° S 22:13:54 80° WSW 22:18:25 10° NNW
Cosmos 1862 Rocket 3.6 22:11:29 20° S 22:14:32 69° E 22:18:56 10° NNE
Cosmos 1603 3.8 22:10:31 10° NNW 22:16:10 77° ENE 22:20:41 16° SE
USA 290 2.9 22:14:13 11° SW 22:17:14 53° WNW 22:20:24 10° NNE
Cosmos 1271 Rocket 3.9 22:16:29 19° SE 22:18:06 26° E 22:21:11 10° NE
Cosmos 2082 3.8 22:13:47 10° SSW 22:19:31 85° WNW 22:25:18 10° NNE
Cosmos 2292 Rocket 2.7 22:18:13 22° SSW 22:19:54 70° W 22:22:50 10° N
USA 305 2.2 22:17:02 10° WSW 22:20:40 76° NNW 22:23:28 10° ENE
Okean 1-7 3.2 22:19:41 22° SSE 22:22:10 55° E 22:26:14 10° NNE
ARIANE 5 R/B 2.8 22:20:49 20° S 22:23:47 68° WSW 22:28:16 10° NNW
Cosmos 546 4.5 22:21:52 10° W 22:25:39 69° S 22:29:27 10° E
SL-4 R/B 2.4 22:22:41 10° SW 22:26:31 38° SSE 22:30:14 10° E
Cosmos 1953 4.0 22:25:00 10° NW 22:27:58 22° W 22:30:44 11° SW
Cosmos 1140 Rocket 3.7 22:26:57 10° SSW 22:32:04 70° WNW 22:37:13 10° NNE
Spot 4 3.9 22:30:33 21° S 22:33:48 76° WSW 22:38:40 10° NNW
NOSS 2-1 (C) 3.6 22:31:18 10° NW 22:34:34 57° NE 22:38:44 10° ESE
PSLV R/B 4.2 22:31:57 10° NNE 22:36:02 41° E 22:38:27 22° SSE
NOSS 3-1 (C) 4.2 22:29:44 10° NW 22:36:40 62° SW 22:43:29 17° SSE
Cosmos 1703 3.5 22:34:57 19° SSW 22:37:16 54° WNW 22:40:44 10° N
Cosmos 2227 4.3 22:33:33 18° SSW 22:37:47 63° ESE 22:43:20 10° NE
NOSS 2-1 (E) 3.7 22:34:51 10° NW 22:38:08 55° NE 22:42:20 10° ESE
Cosmos 1072 Rocket 4.5 22:34:39 10° NNW 22:40:50 79° W 22:45:16 20° S
SJ 16-02 3.1 22:38:57 15° SE 22:40:51 19° E 22:43:57 10° NE
Cosmos 1892 2.7 22:43:00 22° SW 22:44:38 50° WNW 22:47:35 10° N
CZ-4C R/B 4.4 22:47:09 10° N 22:50:04 30° WNW 22:52:42 12° SW
USA 307 3.5 22:54:11 26° SSE 22:54:50 28° SE 22:58:15 10° E
Cosmos 407 Rocket 3.5 22:50:55 15° SSW 22:55:15 77° WNW 23:00:23 10° NNE
Cosmos 2228 Rocket 3.7 22:54:32 16° SSW 22:57:54 52° WNW 23:02:16 10° N
Cosmos 1844 Rocket 2.7 22:54:47 19° SSW 22:58:57 70° ESE 23:04:37 10° NE
USA 234 4.2 22:55:11 10° ENE 23:00:41 28° SE 23:03:50 19° S
Cosmos 1782 Rocket 3.9 22:56:39 10° N 23:01:03 60° ENE 23:03:55 21° SSE
Cosmos 1703 Rocket 3.6 22:59:24 24° S 23:01:54 68° E 23:06:11 10° NNE
OPS 6432 4.3 22:58:54 10° NW 23:02:12 62° SW 23:03:35 29° SSE
Cosmos 2251 Rocket 3.5 22:59:04 19° SSW 23:03:01 84° ESE 23:08:25 10° NNE
Cosmos 1844 3.7 22:59:50 20° SSW 23:03:45 67° ESE 23:09:17 10° NE
USA 59 Rocket -0.4 23:01:40 10° NW 23:05:06 80° SW 23:08:26 17° SE
Landsat 5 4.0 23:02:40 10° N 23:06:52 55° WNW 23:09:56 17° SW
Cosmos 1954 Rocket 4.1 23:07:47 22° S 23:11:08 63° ESE 23:16:17 10° NNE
ATLAS 3B R/B 3.5 23:03:37 10° NW 23:11:29 61° NE 23:19:07 10° ESE
Cosmos 540 Rocket 4.2 23:06:49 10° NW 23:11:35 40° WSW 23:14:32 21° SSW
Cosmos 1190 Rocket 4.0 23:12:31 20° SSW 23:16:17 84° ESE 23:21:35 10° NNE
Tsikada Rocket 4.1 23:12:12 20° S 23:16:33 68° E 23:22:47 10° NNE
ALOS 2 3.5 23:14:27 20° SSW 23:16:56 38° W 23:21:04 10° NNW
Meteor 1-24 Rocket 3.9 23:13:40 21° S 23:17:49 72° E 23:23:42 10° NNE
Cosmos 1606 3.0 23:18:53 10° N 23:21:49 42° ENE 23:23:21 23° SE
Cosmos 468 Rocket 4.5 23:17:33 10° NW 23:22:28 45° WSW 23:25:26 22° SSW
Cosmos 841 Rocket 3.5 23:18:33 10° NNW 23:23:51 82° WSW 23:27:33 20° SSE
NOSS 3-1 (A) 4.1 23:18:04 10° NW 23:25:01 61° SW 23:32:25 14° SSE
Cosmos 2279 Rocket 4.4 23:19:17 10° N 23:25:26 59° ENE 23:30:32 15° SSE
BREEZE-M DEB (TANK) 4.2 23:28:12 21° S 23:29:40 24° SSE 23:32:22 10° ESE
ATLAS 2AS CENTAUR R/B 3.1 23:25:05 19° S 23:29:56 49° ESE 23:36:33 10° NE
Meteor 2-5 Rocket 3.9 23:27:46 21° S 23:31:56 84° E 23:37:55 10° NNE
Cosmos 2034 Rocket 4.4 23:27:34 10° NNW 23:33:37 54° W 23:37:59 19° SSW
Cosmos 2263 Rocket 4.2 23:29:04 10° W 23:33:49 26° NW 23:38:35 10° NNE
H-2A R/B 3.2 23:31:18 14° SE 23:34:05 39° ENE 23:37:30 10° N
Meteor 2-17 Rocket 4.4 23:30:04 20° S 23:34:23 89° W 23:40:29 10° N
Cosmos 2242 Rocket 4.4 23:31:50 20° SSE 23:34:35 42° E 23:38:47 10° NNE
SL-24 R/B - RUBIN 2 4.4 23:30:09 10° NW 23:35:16 59° NE 23:39:49 10° ESE
Cosmos 1833 Rocket 3.0 23:32:33 10° NNW 23:38:11 67° NE 23:43:46 10° SE
SeaSat 1 2.9 23:37:33 22° S 23:40:25 46° WSW 23:45:09 10° NW
Landsat 4 4.2 23:40:02 18° SE 23:41:49 37° ENE 23:44:33 10° N
USA 305 2.5 23:46:20 10° WNW 23:49:23 49° N 23:51:33 10° E
Cosmos 1271 Rocket 4.1 23:50:19 15° WSW 23:52:45 28° WNW 23:55:57 10° N
CZ-2C R/B 3.9 23:48:35 10° NNE 23:53:50 44° E 23:57:35 17° SSE
NOSS 2-1 (D) 4.1 23:52:07 10° WNW 23:55:23 33° SW 23:57:18 23° S
